Flag for China Weather past 2 weeks in Lanzhou, Gansu, China

Now
55 °F

Scattered clouds.


Feels Like: 55 °F
Forecast: 49 / 69 °F
Wind: 1 mph from North

Location: Lanzhou / Zhongchuan

Current Time: May 28, 2015 at 8:54:16 PM

Latest Report: May 28, 2015 at 8:00 PM


Visibility: N/A

Pressure: 30.04 "Hg

Humidity: 72%

Dew point: 46 °F

Location of LanzhouLocation

Historic Weather in Lanzhou — Graph

°F

Lanzhou temperature yesterday

Maximum temperature yesterday: 73 °F (at 12:00 PM)
Minimum temperature yesterday: 48 °F (at 6:00 AM)
Average temperature yesterday: 61 °F

Past Weeks' High & Low Weather Summary

 TemperatureHumidityPressure
High81 °F (May 18, 5:00 PM)100% (May 22, 4:00 AM)30.27 "Hg (May 22, 4:00 AM)
Low41 °F (May 21, 3:00 AM)18% (May 13, 8:00 PM)29.77 "Hg (May 18, 5:00 PM)
Average60 °F52%30.01 "Hg
* Reported May 13 8:00 PM — May 28 8:00 PM, Lanzhou, Weather by CustomWeather, © 2015

Note: Actual official high and low records may vary slightly from our data, if they occured in-between our weather recording intervals... More about our weather records

Advertising

Lanzhou weather history for previous 24 hours

 ConditionsComfort  
Time TempWeatherWind HumidityBarometerVisibility
8:00 PM
Thu, May 28
55 °FScattered clouds.1 mph72%30.04 "HgN/A
7:00 PM55 °FScattered clouds.3 mph67%30.04 "HgN/A
6:00 PM57 °FScattered clouds.3 mph63%30.01 "HgN/A
5:00 PM55 °FScattered clouds.1 mph67%30.01 "HgN/A
4:00 PM57 °FScattered clouds.3 mph63%30.01 "HgN/A
3:00 PM54 °FScattered clouds.3 mph72%30.04 "HgN/A
2:00 PM54 °FMostly cloudy.3 mph72%30.04 "HgN/A
1:00 PM54 °FMore clouds than sun.3 mph72%30.04 "HgN/A
12:00 PM52 °FLight rain. More clouds than sun.6 mph82%30.07 "HgN/A
11:00 AM52 °FLight rain. More clouds than sun.8 mph77%30.07 "HgN/A
10:00 AM52 °FLight rain. More clouds than sun.3 mph77%30.07 "HgN/A
9:00 AM52 °FLight rain. Overcast.3 mph77%30.07 "HgN/A
8:00 AM52 °FLight rain. Overcast.3 mph77%30.07 "HgN/A
7:00 AM52 °FOvercast.6 mph77%30.04 "HgN/A
6:00 AM52 °FOvercast.6 mph77%30.04 "HgN/A
5:00 AM52 °FOvercast.3 mph77%30.01 "HgN/A
4:00 AM52 °FLight rain. Overcast.6 mph77%30.01 "HgN/A
3:00 AM54 °FOvercast.6 mph72%30.01 "HgN/A
2:00 AM54 °FOvercast.6 mph72%30.01 "HgN/A
1:00 AM54 °FLight rain. Overcast.3 mph72%30.04 "HgN/A
12:00 AM54 °FLight rain. Overcast.3 mph77%30.04 "HgN/A
11:00 PM
Wed, May 27
55 °FOvercast.10 mph59%30.01 "HgN/A
10:00 PM55 °FOvercast.10 mph63%30.01 "HgN/A
9:00 PM57 °FLight rain. Overcast.13 mph59%29.98 "HgN/A
8:00 PM59 °FLight rain. Overcast.15 mph51%29.95 "HgN/A
Weather by CustomWeather, © 2015

See weather overviewHow to use our weather pages